Weather History for KABQ - October, 2010

Change the Weather History Date:

Saturday, October 23, 2010

  Actual Average Record
Temperature  
Mean Temperature 54 °F 55 °F  
Max Temperature 63 °F 66 °F 80 °F (1950)
Min Temperature 44 °F 43 °F 19 °F (1908)
Degree Days  
Heating Degree Days 11 10  
Month to date heating degree days 62 145  
Since 1 July heating degree days 62 171  
Cooling Degree Days 0 0  
Month to date cooling degree days 30 7  
Year to date cooling degree days 1634 1319  
Growing Degree Days 4 (Base 50)    
Moisture  
Dew Point 37 °F    
Average Humidity 55    
Maximum Humidity 76    
Minimum Humidity 34    
Precipitation  
Precipitation T in 0.03 in 1.15 in (1907)
Month to date precipitation 0.26 0.83  
Year to date precipitation 7.87 8.19  
Snow  
Snow 0.00 in - - ()
Month to date snowfall 0.0  
Since 1 July snowfall 0.0  
Since 1 September snowfall 0.0  
Snow Depth 0.00 in    
Sea Level Pressure  
Sea Level Pressure 29.90 in    
Wind  
Wind Speed 8 mph (SW)    
Max Wind Speed 20 mph    
Max Gust Speed 23 mph    
Visibility 10 miles    
Events      
T = Trace of Precipitation, MM = Missing Value Source: NWS Daily Summary

Daily Weather History Graph

Daily Weather History Graph

Search for Another Location

Airport or City:

Trip Planner

Search our weather history database for the weather conditions in past years. The results will help you decide how hot, cold, wet, or windy it might be!

Date:

Astronomy

Oct. 23, 2010 Rise Set
Actual Time 7:19 AM MDT 6:21 PM MDT
Civil Twilight 6:53 AM MDT 6:47 PM MDT
Nautical Twilight 6:23 AM MDT 7:17 PM MDT
Astronomical Twilight 5:54 AM MDT 7:46 PM MDT
Moon 6:31 PM MDT (10/23) 7:57 AM MDT (10/23)
Length of Visible Light 11h 53m
Length of Day
11h 02m
Full, 100% of the Moon is Illuminated
Oct 23
Full
Oct 30
Last Quarter
Nov 5
New
Nov 13
First Quarter
Nov 21
Full

Hourly Weather History & Observations

Time (MDT) Temp. Windchill Dew Point Humidity Pressure Visibility Wind Dir Wind Speed Gust Speed Precip Events Conditions
12:56 AM 51.1 °F - 37.9 °F 61% 29.88 in 10.0 mi Variable 6.9 mph 16.1 mph N/A   Mostly Cloudy
1:56 AM 50.0 °F - 37.9 °F 63% 29.88 in 10.0 mi SW 5.8 mph - N/A   Mostly Cloudy
2:56 AM 48.9 °F - 37.9 °F 66% 29.88 in 10.0 mi SSE 8.1 mph - N/A   Overcast
3:56 AM 50.0 °F - 37.9 °F 63% 29.87 in 10.0 mi WSW 8.1 mph - N/A   Mostly Cloudy
4:56 AM 46.0 °F 43.9 °F 37.9 °F 73% 29.88 in 10.0 mi ESE 4.6 mph - N/A   Scattered Clouds
5:56 AM 45.0 °F 42.6 °F 37.9 °F 76% 29.89 in 10.0 mi SE 4.6 mph - N/A   Scattered Clouds
6:56 AM 44.1 °F 40.8 °F 37.9 °F 79% 29.91 in 10.0 mi SE 5.8 mph - N/A   Scattered Clouds
7:56 AM 45.0 °F 40.6 °F 37.9 °F 76% 29.92 in 10.0 mi SSE 8.1 mph - N/A   Mostly Cloudy
8:56 AM 48.0 °F - 37.0 °F 66% 29.93 in 10.0 mi SW 8.1 mph - N/A   Mostly Cloudy
9:56 AM 50.0 °F - 37.9 °F 63% 29.94 in 10.0 mi SW 4.6 mph - N/A   Mostly Cloudy
10:56 AM 53.1 °F - 39.0 °F 59% 29.93 in 10.0 mi East 4.6 mph - N/A   Mostly Cloudy
11:56 AM 57.0 °F - 37.0 °F 47% 29.90 in 10.0 mi Calm Calm - N/A   Scattered Clouds
12:56 PM 60.1 °F - 36.0 °F 41% 29.88 in 10.0 mi WNW 8.1 mph - N/A   Mostly Cloudy
1:56 PM 61.0 °F - 35.1 °F 38% 29.86 in 10.0 mi WNW 15.0 mph - N/A   Mostly Cloudy
2:56 PM 61.0 °F - 34.0 °F 36% 29.86 in 10.0 mi West 16.1 mph - N/A   Mostly Cloudy
3:56 PM 63.0 °F - 34.0 °F 34% 29.84 in 10.0 mi West 16.1 mph - N/A   Mostly Cloudy
4:56 PM 60.1 °F - 36.0 °F 41% 29.88 in 10.0 mi NW 10.4 mph - 0.00 in   Mostly Cloudy
5:56 PM 60.1 °F - 37.0 °F 42% 29.88 in 10.0 mi WNW 6.9 mph - N/A   Mostly Cloudy
6:56 PM 57.9 °F - 36.0 °F 44% 29.90 in 10.0 mi West 9.2 mph - N/A   Scattered Clouds
7:56 PM 55.9 °F - 36.0 °F 47% 29.93 in 10.0 mi West 12.7 mph - N/A   Scattered Clouds
8:56 PM 55.0 °F - 36.0 °F 49% 29.94 in 10.0 mi West 8.1 mph - N/A   Scattered Clouds
9:56 PM 54.0 °F - 36.0 °F 51% 29.95 in 10.0 mi NNW 4.6 mph - N/A   Scattered Clouds
10:56 PM 50.0 °F - 37.0 °F 61% 29.97 in 10.0 mi South 4.6 mph - N/A   Scattered Clouds
11:56 PM 48.0 °F - 37.9 °F 68% 29.97 in 10.0 mi SSE 5.8 mph - N/A   Partly Cloudy